Farrell Flat Airport

Jump to: basic info | weather | frequencies | runways | comments

Related pages: nearby airports | nearby navaids | notams | map

Basic information (top)

Codes: YFFT
Location: lon -33.833302, lat 138.766998
Status: small_airport

Weather (top)

Current conditions for Adelaide International Airport 68nm (125km) S (rec'd 2014/09/23 04:00Z):

YPAD 230400Z 03017KT CAVOK 27/08 Q1016 FM0430 24012KT CAVOK

Airport forecast for Adelaide International Airport 68nm (125km) S (rec'd 2014/09/22 00:51Z):

TAF YPAD 222347Z 2300/2406 03016KT CAVOK 
     FM230400 24012KT CAVOK 
     FM230800 04010KT 9999 -SHRA SCT045 
     FM240000 23012KT 9999 -SHRA SCT045 INTER 2312/2324 5000 SHRA BKN040 
      RMK

Frequencies (top)

Verify before use: may be inaccurate or out of date.

CTAF: 122.4 MHz (CTAF)
MISC: 114.2 MHz (MISC)
MISC: 119.8 MHz (MISC)
MISC: 121.3 MHz (MISC)

Runways (top)

03/21: 1,443 ft (440 m) — grass — not lighted

14/32: 2,486 ft (758 m) — grass — not lighted

Latest comments (top)

No comments yet for Farrell Flat Airport

More... (top)

See also NOTAMs and nearby airports and navaids, or visit the Farrell Flat Airport page at the main OurAirports website..